Dewpoint
75 74 74 67 59 57 52 50 51 52 50 54 57 59 55 55 55 53 64 64 66 70 71 72 76 75 75 76 76 75 75 75 75 75 74 74 75 75 75 75 75 75 75 75 72 73 74 74 74
73 73 71 66 54 52 51 52 54 52 53 52 52 53 53 52 57 61 61 64 68 70 70 71 76 76 75 75 75 75 75 75 74 74 74 74 75 74 73 74 75 74 75 75 74 73 74 74 74
73 72 66 60 55 52 53 52 52 51 52 51 52 52 54 54 58 59 62 65 67 67 69 71 76 76 75 75 76 75 75 74 74 74 74 74 74 74 75 75 75 75 75 74 75 74 74 73 73
70 69 68 59 46 47 48 50 51 50 51 52 52 51 54 59 59 60 63 64 64 67 70 75 76 75 75 76 76 75 74 75 75 75 74 74 75 75 75 74 75 74 74 74 74 74 74 74 73
66 63 56 50 46 48 49 51 50 50 50 52 53 52 53 59 62 65 65 65 67 70 71 72 77 77 76 76 76 74 75 75 75 75 75 74 75 75 75 75 75 74 74 74 74 73 73 73 72
60 63 53 45 44 47 47 51 50 50 51 52 52 52 54 61 62 64 66 67 68 69 70 71 75 76 77 75 75 75 75 74 75 75 75 74 75 74 75 74 75 74 73 73 73 72 72 73 72
60 59 54 44 44 49 48 47 47 49 52 52 53 51 53 61 63 64 65 67 66 68 68 71 73 74 75 76 75 75 75 75 75 75 75 75 75 75 75 75 74 74 73 73 74 73 73 73 73
62 60 51 45 46 43 46 44 46 50 52 53 53 51 52 61 63 63 64 65 65 67 67 70 72 72 73 73 75 75 75 75 75 75 75 74 75 75 74 76 75 74 73 73 73 74 75 74 73
61 58 46 44 45 45 46 45 47 48 51 52 53 54 59 62 63 64 64 62 66 65 67 68 70 71 72 73 73 75 75 75 75 75 75 76 73 73 73 75 75 74 74 74 73 73 74 73 72
58 51 46 45 46 46 47 46 46 50 51 53 54 55 59 60 62 62 60 59 63 65 65 67 68 71 71 71 73 74 74 73 73 73 74 74 74 73 73 75 75 74 75 74 74 75 69 67 69
57 41 46 46 46 47 47 47 48 50 51 54 53 54 57 58 61 61 58 59 62 65 66 67 67 70 70 69 73 73 73 73 73 73 74 74 73 73 72 73 73 73 74 72 73 73 69 70 69
39 40 41 45 47 47 46 46 47 51 52 54 54 55 55 56 56 58 60 59 62 63 65 66 67 69 69 71 72 72 72 72 72 71 73 73 72 72 71 72 72 74 71 73 71 71 72 70 71
41 43 42 42 44 44 44 46 49 51 52 53 54 54 54 55 56 57 59 60 61 61 64 66 67 68 67 68 71 71 71 72 71 72 72 73 71 70 71 71 72 73 72 71 71 71 72 71 71
46 46 42 42 43 43 42 46 50 52 52 52 53 53 54 54 54 57 58 59 60 61 62 64 66 67 69 66 69 69 70 71 71 71 72 72 70 71 70 70 72 71 71 71 70 72 70 69 70
51 48 48 46 47 48 49 46 47 51 52 52 52 52 53 53 54 56 58 58 59 60 63 65 67 67 69 70 68 67 64 68 69 70 72 71 71 71 72 73 71 71 72 71 73 73 70 72 71
48 49 46 46 48 51 49 44 49 50 50 51 52 53 54 55 56 58 57 59 60 62 64 66 66 67 68 69 68 69 68 66 71 72 73 71 71 71 71 74 73 72 71 72 71 72 70 71 71
48 46 44 46 47 50 53 44 48 50 50 50 51 53 55 56 57 57 58 58 59 64 65 65 66 67 68 69 68 68 69 68 71 73 73 72 72 74 71 71 72 72 72 71 74 73 71 71 71
45 43 42 45 48 41 48 50 47 47 49 50 52 53 56 57 57 59 58 58 60 64 65 63 66 67 68 70 68 68 69 69 69 72 73 74 74 74 73 73 72 72 72 73 72 71 72 71 71
41 43 40 46 47 46 43 47 46 44 48 49 50 52 56 57 59 60 59 60 60 63 65 66 68 69 72 70 70 71 70 70 70 72 73 74 74 74 75 74 73 73 72 71 73 72 71 71 71
24 28 34 45 46 44 45 46 46 43 46 48 50 52 54 55 58 59 59 61 62 63 64 68 68 71 71 71 70 70 70 70 70 70 72 72 73 73 74 74 73 74 73 73 72 71 71 71 72
23 24 26 28 34 32 43 46 46 44 44 47 48 50 52 54 55 58 58 59 63 64 66 67 69 71 71 71 72 72 71 71 71 71 73 73 74 74 74 74 74 73 73 73 73 73 72 71 71
23 24 25 27 26 27 32 33 43 41 41 44 44 47 50 51 54 56 57 58 61 65 67 68 69 71 71 72 73 71 69 68 69 70 71 71 75 74 73 73 73 73 73 73 73 73 73 72 71
27 26 23 25 21 25 29 32 38 41 40 42 43 44 46 50 52 54 56 56 59 64 68 70 70 72 70 71 73 71 71 69 70 71 70 71 74 75 74 74 75 74 74 73 74 73 72 73 71
27 26 23 22 24 21 23 29 34 41 41 42 43 43 44 47 49 53 54 55 56 63 66 70 71 72 72 72 74 74 71 71 71 70 71 70 72 73 74 73 75 76 75 74 75 74 74 73 73
26 28 21 23 21 22 23 28 34 37 41 43 43 43 44 46 47 49 51 52 54 59 63 68 71 72 73 73 73 73 75 73 70 72 72 70 70 71 70 74 74 75 75 76 76 75 74 74 73
26 26 20 20 24 22 22 23 26 34 37 43 42 41 43 46 46 47 49 51 52 57 61 66 70 71 73 75 74 74 74 75 75 74 71 71 71 72 74 75 75 75 75 76 75 75 74 74 74
25 23 25 19 19 23 25 27 24 23 24 34 39 39 41 45 46 48 49 51 52 57 58 65 70 71 72 72 75 75 75 74 73 73 72 72 73 73 73 74 74 75 75 76 76 76 75 75 75
24 25 22 25 27 24 24 26 27 24 25 24 34 34 37 37 40 48 50 52 53 57 58 66 70 71 72 73 73 75 75 75 74 75 75 74 72 74 75 75 75 75 76 77 77 76 76 74 73
23 23 23 23 24 24 23 25 25 30 31 26 31 33 30 32 40 42 51 53 55 57 58 65 70 71 71 72 73 73 74 76 76 75 75 74 74 73 74 75 75 75 75 77 77 75 75 72 68
21 21 22 22 23 26 25 24 32 33 30 27 29 31 31 32 39 46 47 56 56 57 59 61 69 70 71 70 72 73 73 73 74 74 74 74 74 74 74 76 74 74 75 77 75 74 75 71 69
Lifted_Index
-6 -6 -4 -3 -2 -2 -2 -2 -2 -2 -1 -1 -1 -1 -1 -1 -0 -0 -0 -1 -2 -2 -3 -3 -3 -4 -4 -4 -4 -4 -4 -4 -4 -4 -4 -4 -4 -4 -4 -4 -4 -4 -5 -5 -4 -4 -5 -5 -5
-6 -5 -4 -2 -2 -1 -2 -2 -2 -1 -1 -1 -1 -1 -1 -0 -1 -1 -1 -1 -2 -2 -2 -3 -4 -4 -4 -4 -4 -4 -4 -4 -4 -4 -4 -4 -4 -4 -4 -4 -4 -4 -5 -5 -4 -4 -5 -5 -5
-5 -4 -4 -3 -2 -2 -2 -2 -2 -1 -1 -0 -0 -0 -0 -0 -0 -1 -1 -1 -1 -1 -2 -3 -4 -4 -4 -4 -4 -4 -4 -4 -4 -4 -4 -4 -4 -4 -4 -4 -4 -5 -5 -5 -5 -5 -5 -5 -5
-4 -4 -3 -3 -2 -2 -2 -2 -1 -0 -0 -0 -0 -0 0 -0 -0 -1 -1 -1 -1 -1 -2 -3 -4 -4 -4 -4 -4 -4 -4 -4 -4 -4 -4 -4 -4 -4 -4 -5 -5 -5 -4 -4 -5 -5 -5 -5 -5
-2 -2 -2 -2 -2 -1 -2 -2 -1 -0 -0 -0 -0 -0 -0 -1 -1 -1 -1 -1 -2 -2 -2 -3 -4 -4 -4 -4 -4 -4 -4 -4 -4 -4 -4 -4 -4 -4 -4 -4 -4 -4 -4 -4 -4 -4 -4 -4 -4
-1 -1 -1 -1 -1 -1 -1 -1 -1 -1 -1 -1 -0 -0 -1 -1 -2 -2 -2 -2 -2 -2 -2 -2 -3 -4 -4 -4 -4 -4 -4 -3 -4 -4 -4 -4 -4 -4 -4 -4 -4 -4 -4 -4 -4 -4 -4 -4 -4
-1 -2 -1 -1 -1 -1 -1 -1 -1 -1 -1 -1 -1 -0 -1 -1 -2 -2 -2 -2 -1 -1 -1 -2 -3 -4 -4 -4 -4 -4 -3 -3 -4 -4 -4 -4 -4 -4 -4 -4 -4 -3 -3 -3 -4 -4 -4 -4 -4
-2 -2 -2 -1 -1 -0 -0 -0 -1 -1 -1 -1 -1 -0 -1 -1 -2 -2 -2 -2 -2 -1 -1 -2 -3 -3 -4 -4 -4 -4 -4 -4 -4 -4 -4 -4 -4 -4 -4 -4 -4 -3 -3 -3 -4 -4 -4 -3 -3
-2 -2 -2 -1 -0 -0 -0 -0 -0 -1 -1 -1 -1 -1 -1 -1 -2 -2 -2 -2 -2 -2 -1 -2 -2 -3 -3 -4 -4 -4 -4 -4 -4 -4 -4 -4 -4 -3 -4 -4 -4 -3 -3 -4 -3 -3 -3 -2 -2
-2 -2 -2 -1 -1 -0 -0 -0 -0 -1 -1 -1 -1 -1 -1 -2 -2 -2 -2 -2 -2 -2 -2 -2 -2 -3 -3 -3 -3 -3 -3 -3 -3 -4 -4 -4 -3 -3 -3 -4 -4 -4 -4 -4 -4 -3 -1 -0 -0
-2 -1 -1 -1 -1 -0 -0 -0 -0 -1 -1 -2 -1 -1 -2 -2 -2 -2 -2 -1 -2 -2 -2 -2 -2 -3 -3 -3 -3 -3 -3 -3 -3 -3 -3 -3 -3 -3 -3 -3 -3 -3 -3 -3 -3 -3 -1 -0 -0
-0 -0 0 -0 -0 -0 -0 -0 -0 -1 -1 -1 -1 -1 -1 -2 -2 -2 -2 -2 -2 -2 -2 -2 -2 -3 -3 -3 -3 -3 -3 -3 -3 -3 -3 -3 -3 -2 -2 -3 -3 -2 -2 -3 -3 -2 -1 -1 -1
0 0 1 1 0 0 0 -0 -0 -1 -1 -1 -1 -1 -1 -1 -1 -1 -2 -2 -2 -2 -2 -3 -3 -3 -3 -3 -3 -3 -3 -3 -3 -3 -3 -3 -3 -2 -2 -2 -3 -2 -2 -2 -2 -2 -2 -1 -1
0 0 0 0 0 0 0 0 -0 -1 -0 -0 -1 -1 -1 -0 -1 -1 -1 -1 -2 -2 -2 -2 -3 -3 -3 -3 -3 -3 -3 -3 -3 -3 -3 -3 -3 -3 -3 -3 -3 -3 -2 -2 -2 -2 -2 -2 -2
-0 -0 -1 -1 -1 -1 0 -0 -0 -1 -0 -0 -1 -1 -1 -0 -0 -0 -0 -1 -1 -2 -2 -2 -3 -3 -3 -3 -2 -2 -2 -2 -3 -3 -3 -3 -3 -3 -3 -3 -3 -3 -3 -2 -2 -2 -3 -2 -2
-0 -1 -1 -1 -1 -1 -0 -0 -0 -0 -0 -0 -0 -1 -1 -0 -0 -0 -0 -0 -1 -1 -2 -2 -3 -3 -3 -3 -2 -2 -2 -2 -3 -3 -3 -3 -3 -3 -3 -3 -3 -3 -3 -3 -3 -3 -3 -3 -3
-0 -1 -1 -1 -1 -1 -0 -0 -0 -0 -0 -0 -0 -1 -1 -1 -1 -0 -0 0 -0 -1 -2 -2 -2 -3 -3 -3 -3 -2 -3 -3 -3 -4 -4 -4 -4 -4 -4 -3 -3 -4 -3 -3 -3 -3 -3 -3 -3
-0 -1 -1 -1 -1 0 -0 -0 -0 -0 -0 -0 -1 -1 -1 -1 -1 -1 -1 -0 -0 -1 -1 -1 -2 -3 -3 -3 -3 -3 -3 -3 -4 -4 -4 -4 -4 -5 -4 -4 -4 -4 -4 -4 -4 -4 -3 -3 -3
-1 -1 -1 -1 -0 0 -0 -1 -0 -0 -0 -1 -1 -1 -1 -1 -2 -2 -1 -1 -1 -1 -1 -2 -2 -3 -3 -3 -3 -4 -4 -4 -4 -4 -4 -5 -5 -5 -5 -4 -4 -4 -4 -4 -4 -4 -4 -4 -4
-1 -1 -1 -1 -0 -0 -1 -1 -0 0 -0 -1 -1 -1 -1 -1 -2 -2 -2 -2 -2 -2 -2 -2 -3 -3 -4 -4 -4 -4 -4 -4 -4 -4 -4 -5 -5 -5 -5 -5 -5 -5 -5 -5 -5 -4 -4 -4 -4
-1 -1 -1 -1 -0 -1 -1 -1 -0 0 0 0 -0 -0 -1 -1 -2 -2 -2 -3 -3 -3 -3 -3 -4 -4 -4 -4 -4 -5 -5 -5 -4 -4 -5 -5 -6 -6 -6 -6 -6 -5 -5 -5 -5 -5 -5 -5 -5
-1 -1 -1 -0 -1 -1 -1 -1 -0 0 1 1 1 0 -0 -1 -1 -2 -2 -2 -3 -4 -4 -4 -5 -5 -5 -5 -5 -5 -5 -5 -5 -5 -5 -6 -7 -7 -7 -6 -6 -6 -6 -5 -5 -5 -5 -5 -5
-1 -0 -0 -0 -1 -1 -1 -1 -0 0 1 1 1 1 0 0 -0 -1 -2 -2 -3 -3 -4 -5 -6 -6 -6 -6 -6 -6 -6 -5 -5 -6 -6 -6 -7 -8 -8 -8 -7 -7 -6 -6 -6 -6 -5 -5 -5
-0 -0 0 0 -0 -1 -1 -0 -0 1 1 1 1 1 1 1 0 -0 -1 -1 -2 -3 -4 -5 -6 -7 -7 -7 -7 -7 -6 -6 -6 -6 -7 -7 -7 -8 -8 -8 -8 -8 -7 -7 -7 -6 -6 -6 -6
-0 0 0 0 -0 -1 -0 -0 0 1 1 1 1 1 1 1 1 1 0 -0 -1 -2 -3 -4 -6 -6 -7 -7 -7 -7 -7 -7 -7 -7 -7 -7 -7 -8 -8 -8 -8 -8 -8 -8 -8 -7 -7 -7 -7
0 0 0 -0 -1 -1 -1 -1 -0 1 1 1 2 2 2 1 1 1 1 0 -0 -1 -2 -4 -5 -6 -6 -7 -7 -7 -7 -7 -7 -7 -7 -6 -7 -7 -8 -8 -8 -8 -8 -8 -8 -8 -8 -8 -8
1 1 0 -0 -1 -1 -1 -1 -0 1 1 1 2 2 2 2 1 1 1 0 -0 -0 -2 -3 -5 -5 -6 -6 -7 -7 -7 -7 -7 -7 -7 -6 -6 -7 -8 -8 -8 -8 -8 -9 -9 -9 -9 -8 -8
0 1 1 0 -0 -1 -1 -1 -1 0 1 1 2 2 2 2 2 1 0 -0 -0 -1 -1 -3 -5 -5 -6 -6 -7 -7 -7 -7 -7 -7 -7 -7 -7 -7 -8 -8 -8 -8 -8 -9 -9 -9 -9 -7 -6
-0 -0 0 0 -0 -0 -0 -1 -1 -0 1 1 2 2 3 3 2 2 0 -0 -1 -1 -2 -3 -5 -6 -6 -6 -6 -7 -7 -7 -7 -7 -7 -7 -7 -7 -7 -8 -8 -8 -8 -9 -9 -9 -8 -6 -4
-0 -0 -0 0 0 -0 -0 -0 -0 -0 0 1 1 2 3 3 3 2 1 -1 -1 -1 -2 -3 -5 -6 -6 -6 -6 -7 -7 -7 -7 -7 -7 -7 -7 -7 -7 -8 -8 -8 -8 -9 -9 -8 -8 -6 -4